DLH118 EDDF-EDDH

Flight info

Callsign DLH118
Flight time 0h 55m
Altitude 35000
Route MARUN3W MARUN Y150 TOLGI DCT SAS/N0450F340 P605 NOLGO NOLGO2P
Aircraft A320/M-SDE3FGHIRWY/LB1

Departure

Time 2026-04-16 14:41
Airport Frankfurt Main Airport (EDDF)

Arrival

Time 2026-04-16 15:36
Airport Hamburg Helmut Schmidt Airport (EDDH)
Time Latitude Longitude Altitude Speed Heading
2026-04-16 14:03 50.04802 8.56916 356 ft 0 kts 294°
2026-04-16 14:24 50.04802 8.56917 356 ft 0 kts 294°
2026-04-16 14:29 50.04799 8.56926 362 ft 4 kts 294°
2026-04-16 14:30 50.04789 8.56965 360 ft 4 kts 295°
2026-04-16 14:30 50.04780 8.57001 357 ft 4 kts 264°
2026-04-16 14:30 50.04791 8.57031 360 ft 4 kts 208°
2026-04-16 14:30 50.04796 8.57036 358 ft 2 kts 204°
2026-04-16 14:31 50.04773 8.57020 356 ft 4 kts 204°
2026-04-16 14:31 50.04748 8.57003 356 ft 4 kts 204°
2026-04-16 14:31 50.04724 8.56985 361 ft 4 kts 205°
2026-04-16 14:31 50.04699 8.56967 356 ft 4 kts 205°
2026-04-16 14:32 50.04675 8.56950 359 ft 4 kts 205°
2026-04-16 14:32 50.04650 8.56932 362 ft 4 kts 205°
2026-04-16 14:32 50.04625 8.56919 359 ft 4 kts 196°
2026-04-16 14:32 50.04599 8.56908 356 ft 4 kts 193°
2026-04-16 14:33 50.04573 8.56898 358 ft 4 kts 193°
2026-04-16 14:33 50.04546 8.56889 361 ft 4 kts 193°
2026-04-16 14:33 50.04538 8.56886 359 ft 0 kts 193°
2026-04-16 14:35 50.04522 8.56879 359 ft 8 kts 195°
2026-04-16 14:36 50.04433 8.56846 359 ft 16 kts 191°
2026-04-16 14:36 50.04329 8.56824 360 ft 14 kts 180°
2026-04-16 14:36 50.04279 8.56887 360 ft 9 kts 96°
2026-04-16 14:36 50.04294 8.56979 360 ft 8 kts 69°
2026-04-16 14:37 50.04317 8.57074 362 ft 10 kts 69°
2026-04-16 14:37 50.04346 8.57193 362 ft 14 kts 69°
2026-04-16 14:37 50.04383 8.57350 361 ft 17 kts 70°
2026-04-16 14:37 50.04429 8.57542 367 ft 20 kts 69°
2026-04-16 14:38 50.04480 8.57752 365 ft 22 kts 70°
2026-04-16 14:38 50.04527 8.57949 364 ft 10 kts 70°
2026-04-16 14:38 50.04518 8.58067 366 ft 13 kts 137°
2026-04-16 14:38 50.04474 8.58099 365 ft 0 kts 156°
2026-04-16 14:39 50.04418 8.58116 369 ft 16 kts 182°
2026-04-16 14:40 50.04343 8.57999 366 ft 16 kts 245°
2026-04-16 14:40 50.04303 8.57822 364 ft 22 kts 252°
2026-04-16 14:40 50.04176 8.57273 368 ft 89 kts 249°
2026-04-16 14:40 50.03890 8.56080 358 ft 146 kts 251°
2026-04-16 14:41 50.03533 8.54350 581 ft 174 kts 251°
2026-04-16 14:41 50.03068 8.52623 1261 ft 175 kts 249°
2026-04-16 14:41 50.02595 8.50779 1753 ft 193 kts 243°
2026-04-16 14:41 50.01742 8.49113 2417 ft 201 kts 219°
2026-04-16 14:42 50.00499 8.48104 3190 ft 205 kts 196°
2026-04-16 14:42 49.99086 8.47740 3991 ft 207 kts 190°
2026-04-16 14:42 49.97648 8.47428 4783 ft 211 kts 190°
2026-04-16 14:42 49.96200 8.47097 5542 ft 214 kts 194°
2026-04-16 14:43 49.94702 8.46451 5983 ft 234 kts 199°
2026-04-16 14:43 49.93093 8.45703 6595 ft 246 kts 201°
2026-04-16 14:43 49.91627 8.44341 7339 ft 247 kts 228°
2026-04-16 14:43 49.90760 8.42059 8145 ft 248 kts 256°
2026-04-16 14:44 49.90697 8.39398 8968 ft 251 kts 283°
2026-04-16 14:44 49.91458 8.36994 9776 ft 258 kts 310°
2026-04-16 14:44 49.92928 8.35376 10557 ft 265 kts 334°
2026-04-16 14:44 49.94707 8.34198 10886 ft 289 kts 335°
2026-04-16 14:45 49.96643 8.32949 11156 ft 313 kts 335°
2026-04-16 14:45 49.98726 8.31612 11516 ft 332 kts 335°
2026-04-16 14:45 50.00859 8.30239 12194 ft 338 kts 335°
2026-04-16 14:45 50.03129 8.29157 12955 ft 344 kts 347°
2026-04-16 14:46 50.05532 8.28876 13724 ft 350 kts 359°
2026-04-16 14:46 50.07969 8.29446 14419 ft 358 kts 12°
2026-04-16 14:46 50.10353 8.30661 15068 ft 362 kts 15°
2026-04-16 14:46 50.12751 8.31924 15712 ft 365 kts 15°
2026-04-16 14:47 50.15147 8.33178 16335 ft 368 kts 14°
2026-04-16 14:47 50.17591 8.34452 16973 ft 372 kts 14°
2026-04-16 14:47 50.20059 8.35738 17582 ft 375 kts 14°
2026-04-16 14:47 50.22547 8.37043 18219 ft 379 kts 14°
2026-04-16 14:48 50.25053 8.38366 18792 ft 382 kts 14°
2026-04-16 14:48 50.27586 8.39705 19337 ft 384 kts 14°
2026-04-16 14:48 50.30134 8.41056 19869 ft 387 kts 14°
2026-04-16 14:48 50.32692 8.42432 20387 ft 390 kts 14°
2026-04-16 14:49 50.35231 8.43819 20909 ft 393 kts 14°
2026-04-16 14:49 50.37828 8.45248 21432 ft 395 kts 14°
2026-04-16 14:49 50.40440 8.46685 21954 ft 398 kts 14°
2026-04-16 14:49 50.43077 8.48132 22439 ft 401 kts 14°
2026-04-16 14:50 50.45686 8.49560 22912 ft 404 kts 14°
2026-04-16 14:50 50.48357 8.51009 23397 ft 406 kts 13°
2026-04-16 14:50 50.51065 8.52379 23861 ft 408 kts 12°
2026-04-16 14:50 50.53791 8.53676 24245 ft 410 kts 11°
2026-04-16 14:51 50.56539 8.54947 24631 ft 413 kts 11°
2026-04-16 14:51 50.59310 8.56227 25018 ft 416 kts 11°
2026-04-16 14:51 50.62056 8.57508 25391 ft 418 kts 11°
2026-04-16 14:51 50.64864 8.58838 25758 ft 421 kts 11°
2026-04-16 14:53 50.84089 8.71675 28179 ft 459 kts 40°
2026-04-16 14:53 50.86174 8.75580 28502 ft 468 kts 48°
2026-04-16 14:54 50.88146 8.79722 28834 ft 470 kts 48°
2026-04-16 14:54 50.90103 8.83824 29133 ft 473 kts 48°
2026-04-16 14:54 50.92098 8.88000 29436 ft 475 kts 48°
2026-04-16 14:54 50.94104 8.92199 29725 ft 478 kts 48°
2026-04-16 14:55 50.96126 8.96426 30015 ft 480 kts 48°
2026-04-16 14:55 50.98125 9.00611 30289 ft 482 kts 48°
2026-04-16 14:55 51.00164 9.04892 30557 ft 485 kts 47°
2026-04-16 14:55 51.02194 9.09174 30810 ft 486 kts 48°
2026-04-16 14:56 51.04230 9.13491 31076 ft 488 kts 48°
2026-04-16 14:56 51.06274 9.17820 31330 ft 488 kts 46°
2026-04-16 14:56 51.08490 9.21787 31601 ft 481 kts 37°
2026-04-16 14:56 51.11042 9.25176 31970 ft 471 kts 28°
2026-04-16 14:57 51.13812 9.27871 32345 ft 461 kts 20°
2026-04-16 14:57 51.16733 9.29852 32729 ft 451 kts 11°
2026-04-16 14:57 51.19693 9.31127 33115 ft 442 kts
2026-04-16 14:57 51.22700 9.32157 33535 ft 440 kts
2026-04-16 14:58 51.25690 9.33194 33909 ft 438 kts
2026-04-16 14:58 51.31640 9.35271 34546 ft 436 kts
2026-04-16 14:58 51.34599 9.36302 34811 ft 436 kts
2026-04-16 14:59 51.37532 9.37321 35059 ft 436 kts
2026-04-16 14:59 51.40512 9.38356 35186 ft 437 kts
2026-04-16 14:59 51.43472 9.39390 35239 ft 434 kts
2026-04-16 15:00 51.49341 9.41450 35219 ft 433 kts
2026-04-16 15:00 51.55226 9.43510 35223 ft 433 kts
2026-04-16 15:01 51.61128 9.45586 35228 ft 433 kts
2026-04-16 15:01 51.67018 9.47651 35261 ft 433 kts
2026-04-16 15:02 51.72881 9.49729 35241 ft 434 kts
2026-04-16 15:02 51.78793 9.51834 35233 ft 434 kts
2026-04-16 15:03 51.84618 9.54680 35217 ft 446 kts 19°
2026-04-16 15:03 51.90180 9.59265 35245 ft 448 kts 21°
2026-04-16 15:04 51.95697 9.63845 35235 ft 448 kts 20°
2026-04-16 15:04 52.01256 9.68469 35220 ft 448 kts 20°
2026-04-16 15:05 52.05880 9.72322 35220 ft 448 kts 20°
2026-04-16 15:05 52.09567 9.75396 35026 ft 449 kts 20°
2026-04-16 15:05 52.11448 9.76968 34862 ft 449 kts 20°
2026-04-16 15:05 52.14185 9.79258 34653 ft 449 kts 21°
2026-04-16 15:06 52.16971 9.81589 34418 ft 448 kts 21°
2026-04-16 15:06 52.19755 9.83924 34171 ft 448 kts 21°
2026-04-16 15:06 52.22500 9.86217 33896 ft 447 kts 19°
2026-04-16 15:06 52.25367 9.88049 33619 ft 439 kts 10°
2026-04-16 15:07 52.28332 9.89139 33341 ft 432 kts
2026-04-16 15:07 52.31315 9.89766 33066 ft 428 kts
2026-04-16 15:07 52.34237 9.90390 32794 ft 417 kts
2026-04-16 15:07 52.37044 9.91007 32558 ft 407 kts
2026-04-16 15:08 52.39822 9.91619 32290 ft 397 kts
2026-04-16 15:08 52.42537 9.92208 32022 ft 390 kts
2026-04-16 15:08 52.45230 9.92788 31788 ft 387 kts
2026-04-16 15:08 52.47890 9.93359 31445 ft 386 kts
2026-04-16 15:09 52.50582 9.93931 30675 ft 391 kts
2026-04-16 15:09 52.53228 9.94501 30195 ft 387 kts
2026-04-16 15:09 52.55955 9.95080 28780 ft 404 kts
2026-04-16 15:09 52.58754 9.95680 28132 ft 406 kts
2026-04-16 15:10 52.61561 9.96299 27498 ft 405 kts
2026-04-16 15:10 52.64351 9.96926 26867 ft 403 kts
2026-04-16 15:10 52.67106 9.97546 26253 ft 401 kts
2026-04-16 15:10 52.69872 9.98166 25640 ft 399 kts
2026-04-16 15:11 52.72623 9.98780 25027 ft 397 kts
2026-04-16 15:11 52.75364 9.99389 24413 ft 396 kts
2026-04-16 15:11 52.78070 9.99988 23815 ft 395 kts
2026-04-16 15:11 52.80795 10.00590 23149 ft 393 kts
2026-04-16 15:12 52.83487 10.01185 22612 ft 389 kts
2026-04-16 15:12 52.86160 10.01776 22039 ft 386 kts
2026-04-16 15:12 52.88811 10.02362 21525 ft 382 kts
2026-04-16 15:12 52.91402 10.02937 21029 ft 378 kts
2026-04-16 15:13 52.94006 10.03516 20553 ft 375 kts
2026-04-16 15:13 52.96585 10.04092 20155 ft 369 kts
2026-04-16 15:13 52.99094 10.04659 20024 ft 357 kts
2026-04-16 15:13 53.01513 10.05208 19897 ft 345 kts
2026-04-16 15:14 53.03861 10.05741 19675 ft 337 kts
2026-04-16 15:14 53.06140 10.06255 19329 ft 333 kts
2026-04-16 15:14 53.08435 10.06768 18952 ft 331 kts
2026-04-16 15:14 53.10714 10.07277 18575 ft 330 kts
2026-04-16 15:15 53.12986 10.07785 18164 ft 328 kts
2026-04-16 15:15 53.15240 10.08290 17751 ft 326 kts
2026-04-16 15:15 53.17491 10.08795 17347 ft 325 kts
2026-04-16 15:15 53.19732 10.09298 16962 ft 323 kts
2026-04-16 15:16 53.21933 10.09794 16588 ft 322 kts
2026-04-16 15:16 53.24151 10.10295 16218 ft 320 kts
2026-04-16 15:16 53.26355 10.10796 15857 ft 319 kts
2026-04-16 15:16 53.28553 10.11295 15502 ft 317 kts
2026-04-16 15:17 53.30740 10.11793 15153 ft 316 kts
2026-04-16 15:17 53.32930 10.12291 14584 ft 322 kts
2026-04-16 15:17 53.35169 10.12798 13850 ft 333 kts
2026-04-16 15:17 53.37505 10.13326 13036 ft 341 kts
2026-04-16 15:18 53.39869 10.13733 12254 ft 346 kts 358°
2026-04-16 15:18 53.42290 10.13505 11480 ft 349 kts 353°
2026-04-16 15:18 53.44711 10.13195 10741 ft 352 kts 353°
2026-04-16 15:18 53.47160 10.12882 10267 ft 347 kts 353°
2026-04-16 15:19 53.49520 10.12588 10143 ft 332 kts 353°
2026-04-16 15:19 53.51780 10.12308 10023 ft 318 kts 353°
2026-04-16 15:19 53.53949 10.12039 9881 ft 306 kts 353°
2026-04-16 15:19 53.56009 10.11806 9749 ft 295 kts 356°
2026-04-16 15:20 53.58008 10.12378 9621 ft 290 kts 19°
2026-04-16 15:20 53.59688 10.14172 9486 ft 285 kts 42°
2026-04-16 15:20 53.60975 10.16664 9352 ft 276 kts 47°
2026-04-16 15:20 53.62181 10.19103 9220 ft 267 kts 48°
2026-04-16 15:21 53.63334 10.21444 9089 ft 259 kts 48°
2026-04-16 15:21 53.64468 10.23747 8956 ft 251 kts 48°
2026-04-16 15:21 53.65575 10.25986 8822 ft 244 kts 47°
2026-04-16 15:21 53.66649 10.28159 8679 ft 237 kts 47°
2026-04-16 15:22 53.67693 10.30270 8560 ft 231 kts 47°
2026-04-16 15:22 53.68710 10.32323 8409 ft 225 kts 47°
2026-04-16 15:22 53.69699 10.34323 8279 ft 219 kts 47°
2026-04-16 15:22 53.70653 10.36253 8124 ft 215 kts 47°
2026-04-16 15:23 53.71612 10.38195 7909 ft 214 kts 47°
2026-04-16 15:23 53.72566 10.40125 7716 ft 213 kts 47°
2026-04-16 15:23 53.73513 10.42048 7486 ft 213 kts 48°
2026-04-16 15:23 53.74464 10.43979 7255 ft 213 kts 47°
2026-04-16 15:24 53.75412 10.45897 7066 ft 212 kts 47°
2026-04-16 15:24 53.76365 10.47827 6725 ft 219 kts 47°
2026-04-16 15:24 53.77372 10.49865 6233 ft 232 kts 47°
2026-04-16 15:24 53.78385 10.51934 6158 ft 223 kts 47°
2026-04-16 15:25 53.79344 10.53904 6164 ft 210 kts 48°
2026-04-16 15:25 53.80262 10.55788 6165 ft 210 kts 48°
2026-04-16 15:25 53.81206 10.57718 6164 ft 211 kts 47°
2026-04-16 15:25 53.82200 10.59474 6165 ft 207 kts 32°
2026-04-16 15:26 53.83473 10.60498 6163 ft 200 kts
2026-04-16 15:26 53.84838 10.60651 6167 ft 195 kts 347°
2026-04-16 15:26 53.86114 10.59980 6166 ft 189 kts 327°
2026-04-16 15:26 53.87164 10.58678 6167 ft 187 kts 316°
2026-04-16 15:27 53.88165 10.57260 6165 ft 187 kts 314°
2026-04-16 15:27 53.88905 10.55491 6168 ft 183 kts 289°
2026-04-16 15:27 53.89123 10.53426 6166 ft 181 kts 266°
2026-04-16 15:27 53.88814 10.51360 6176 ft 183 kts 244°
2026-04-16 15:28 53.88056 10.49615 6171 ft 184 kts 232°
2026-04-16 15:28 53.87171 10.48029 6170 ft 184 kts 230°
2026-04-16 15:28 53.86333 10.46431 6169 ft 184 kts 232°
2026-04-16 15:28 53.85505 10.44763 6169 ft 185 kts 233°
2026-04-16 15:29 53.84683 10.43081 6173 ft 185 kts 234°
2026-04-16 15:29 53.83866 10.41400 6164 ft 185 kts 234°
2026-04-16 15:29 53.83056 10.39730 6004 ft 182 kts 233°
2026-04-16 15:29 53.82247 10.38066 5769 ft 183 kts 233°
2026-04-16 15:30 53.81450 10.36424 5547 ft 184 kts 233°
2026-04-16 15:30 53.80633 10.34745 5302 ft 185 kts 233°
2026-04-16 15:30 53.79812 10.33056 5040 ft 186 kts 232°
2026-04-16 15:30 53.78984 10.31355 4783 ft 187 kts 233°
2026-04-16 15:31 53.78152 10.29649 4535 ft 188 kts 232°
2026-04-16 15:31 53.77319 10.27940 4278 ft 189 kts 233°
2026-04-16 15:31 53.76480 10.26220 4019 ft 190 kts 232°
2026-04-16 15:31 53.75645 10.24511 3770 ft 191 kts 233°
2026-04-16 15:32 53.74794 10.22767 3517 ft 191 kts 232°
2026-04-16 15:32 53.73959 10.21061 3250 ft 186 kts 233°
2026-04-16 15:32 53.73144 10.19396 2985 ft 182 kts 233°
2026-04-16 15:32 53.72355 10.17784 2761 ft 177 kts 233°
2026-04-16 15:33 53.71578 10.16200 2521 ft 173 kts 235°
2026-04-16 15:33 53.70818 10.14647 2284 ft 170 kts 233°
2026-04-16 15:33 53.70069 10.13121 2058 ft 167 kts 233°
2026-04-16 15:33 53.69330 10.11615 1838 ft 166 kts 234°
2026-04-16 15:34 53.68593 10.10115 1610 ft 165 kts 235°
2026-04-16 15:34 53.67874 10.08651 1389 ft 163 kts 236°
2026-04-16 15:34 53.67151 10.07181 1173 ft 161 kts 236°
2026-04-16 15:34 53.66449 10.05755 957 ft 152 kts 232°
2026-04-16 15:35 53.65809 10.04456 754 ft 137 kts 234°
2026-04-16 15:35 53.65223 10.03268 587 ft 128 kts 237°
2026-04-16 15:35 53.64656 10.02113 418 ft 130 kts 239°
2026-04-16 15:35 53.64078 10.00942 254 ft 128 kts 235°
2026-04-16 15:36 53.63518 9.99807 72 ft 123 kts 235°
2026-04-16 15:36 53.63035 9.98814 49 ft 91 kts 230°
2026-04-16 15:36 53.62682 9.98093 50 ft 66 kts 230°
2026-04-16 15:36 53.62487 9.97784 46 ft 17 kts 184°
2026-04-16 15:37 53.62428 9.97884 50 ft 11 kts 101°
2026-04-16 15:37 53.62429 9.97928 50 ft 0 kts 83°
2026-04-16 15:38 53.62431 9.97943 50 ft 7 kts 80°
2026-04-16 15:38 53.62454 9.98058 48 ft 10 kts 62°
2026-04-16 15:39 53.62494 9.98154 50 ft 11 kts 51°
2026-04-16 15:39 53.62561 9.98292 50 ft 19 kts 50°
2026-04-16 15:39 53.62668 9.98499 50 ft 27 kts 50°
2026-04-16 15:39 53.62800 9.98769 50 ft 31 kts 51°
2026-04-16 15:40 53.62936 9.99048 50 ft 30 kts 51°
2026-04-16 15:40 53.63070 9.99331 50 ft 31 kts 55°
2026-04-16 15:40 53.63098 9.99401 50 ft 0 kts 56°
2026-04-16 15:41 53.63099 9.99402 50 ft 2 kts 56°
2026-04-16 15:41 53.63136 9.99487 50 ft 16 kts 52°
2026-04-16 15:41 53.63232 9.99685 50 ft 25 kts 47°
2026-04-16 15:42 53.63354 9.99913 50 ft 27 kts 49°
2026-04-16 15:42 53.63413 10.00030 51 ft 0 kts 49°
2026-04-16 15:44 53.63422 10.00051 51 ft 8 kts 58°
2026-04-16 15:44 53.63425 10.00142 51 ft 8 kts 100°
2026-04-16 15:45 53.63416 10.00224 51 ft 7 kts 102°
2026-04-16 15:45 53.63413 10.00293 51 ft 5 kts 88°
2026-04-16 15:45 53.63416 10.00340 51 ft 0 kts 87°